GFSWCAN_con_lsi_000.txt.gz
Lid_Strength_Index
4 4 4 4 4 4 4 4 4 4 4 5 4 4 4 4 4 1 0 -0 2 7 4 5 4 5 5 6 9 6 7 8 10 13 13 13 14 11 13 10 12 13 15 15 15 17 17 7 10 12 8 6 6 6
4 4 4 4 5 5 4 4 4 5 5 5 5 5 5 4 4 3 3 0 1 5 5 2 2 1 2 2 5 5 6 6 7 10 11 11 14 14 13 15 9 14 11 12 11 12 6 6 7 6 5 6 6 6
5 4 4 5 5 5 5 5 5 5 5 5 5 5 4 4 4 3 3 2 3 11 7 6 5 2 1 1 1 7 8 5 7 5 8 12 13 11 14 13 11 9 7 11 11 8 7 7 5 5 4 5 5 5
4 4 4 5 5 5 5 5 5 5 5 5 5 5 5 4 4 4 4 2 3 9 14 8 2 3 1 1 2 2 3 2 3 4 12 12 12 9 12 10 11 9 9 10 10 8 7 6 5 5 5 4 5 5
3 3 3 4 4 5 5 5 5 5 5 5 4 4 4 4 4 4 3 3 2 4 12 10 6 3 2 2 2 2 3 4 6 12 13 12 10 10 9 9 11 8 9 11 12 7 7 7 5 5 5 5 5 6
3 3 3 3 3 4 3 3 3 4 5 5 4 4 4 4 4 5 8 5 3 3 11 13 8 7 4 3 3 3 3 4 5 9 11 9 8 10 13 12 8 6 5 5 7 5 5 5 5 4 5 5 5 5
2 2 2 3 3 3 4 4 4 4 4 4 4 4 4 4 4 6 8 6 5 3 12 13 12 9 8 6 5 4 3 5 6 9 11 9 9 8 12 13 7 6 5 6 5 5 6 5 6 4 4 5 5 5
2 2 2 2 3 3 4 4 4 4 4 4 4 4 4 4 5 7 5 4 4 6 10 13 12 10 8 9 9 7 6 6 8 7 8 8 7 10 12 8 7 6 6 5 5 4 5 5 5 6 6 6 7 6
2 2 3 3 3 3 3 3 3 4 4 4 4 4 5 6 8 7 5 4 4 7 13 13 13 12 8 8 8 8 8 11 6 11 9 7 9 12 9 8 7 6 6 6 5 5 6 7 7 7 7 6 6 6
2 3 3 3 3 3 3 3 3 3 3 3 4 7 10 7 5 5 6 8 9 10 11 12 9 11 7 9 10 9 10 12 12 10 7 11 11 7 6 6 5 5 5 6 8 9 8 8 8 7 6 6 6 7
3 3 3 3 3 3 3 3 3 4 4 4 7 8 4 5 5 8 11 12 10 12 10 10 9 10 7 11 11 9 11 11 13 10 11 11 12 8 7 7 6 7 7 8 8 7 7 7 7 7 7 7 8 8
3 3 3 3 3 3 3 3 3 3 3 4 5 4 5 6 8 11 12 11 12 12 9 10 10 9 8 8 9 10 12 11 14 11 13 14 9 9 9 8 8 7 7 7 7 7 6 6 5 6 6 7 8 8
2 2 2 2 3 3 3 3 4 3 3 3 6 9 9 10 12 14 14 11 11 9 10 11 10 10 10 10 11 11 12 12 11 13 13 10 8 8 8 7 7 6 7 8 7 6 5 5 5 6 7 8 9 9
2 2 2 2 2 2 2 2 2 3 3 8 9 12 11 12 12 11 9 9 9 9 10 9 9 9 9 11 10 12 10 11 13 14 12 8 8 8 7 7 7 6 7 8 7 6 6 7 7 9 9 9 9 9
2 2 2 2 2 2 1 1 2 1 5 8 8 12 11 9 8 8 8 8 7 7 8 9 9 9 10 11 10 10 12 14 12 12 9 6 6 7 7 6 6 6 7 7 6 7 7 8 8 9 10 9 9 10
2 2 3 2 2 2 2 2 2 2 6 8 8 10 8 9 8 9 9 8 6 7 7 7 10 11 11 9 11 12 12 13 9 8 6 5 6 6 6 5 6 5 6 6 6 7 7 8 9 8 8 9 9 9
2 3 2 2 2 1 2 3 3 7 8 10 10 7 7 9 9 8 7 6 5 7 9 9 12 11 8 11 12 9 10 8 7 5 4 5 5 5 5 5 6 6 6 6 6 8 8 8 8 9 8 9 9 9
2 1 1 1 1 2 3 3 6 8 11 9 11 8 8 8 7 7 7 6 7 7 7 9 7 10 11 12 10 7 6 5 5 5 4 4 4 4 4 4 4 4 5 6 7 8 9 9 9 8 8 9 9 8
1 1 1 1 1 3 6 6 5 10 10 8 8 7 7 6 5 5 5 5 4 4 6 7 9 10 9 7 7 6 6 5 5 4 4 4 4 4 5 4 5 5 6 7 8 8 8 8 8 7 7 8 7 7
1 1 0 1 1 4 7 7 5 8 10 8 7 7 7 7 6 6 5 5 5 7 9 9 9 7 6 5 4 5 4 4 4 5 5 4 3 3 4 5 6 6 6 7 8 8 8 9 8 8 7 7 6 6
1 1 1 1 3 4 6 7 8 7 7 8 6 7 7 7 7 7 6 4 7 8 9 6 6 5 4 4 3 3 4 4 4 4 5 5 3 5 6 6 6 6 7 7 7 7 8 7 7 8 8 7 7 6
2 1 4 3 5 5 6 5 6 5 8 7 8 7 8 8 8 7 5 7 8 6 5 5 4 4 4 5 4 4 4 4 3 4 5 4 6 6 6 6 6 7 7 6 6 7 7 7 7 8 7 7 8 6
1 3 5 5 6 6 8 5 8 7 9 9 8 9 9 9 7 6 8 7 6 4 3 4 4 3 4 3 4 3 3 4 4 4 4 5 5 6 6 5 6 7 7 7 7 7 7 8 8 7 7 7 6 6
1 4 6 6 7 9 7 9 7 8 8 10 10 11 9 8 8 8 10 7 5 4 4 5 4 4 4 4 4 4 4 4 4 5 5 6 5 5 5 5 6 6 6 6 7 6 8 7 7 8 7 7 6 6
6 7 7 9 6 9 10 10 9 10 11 10 10 10 8 8 9 9 10 7 5 5 4 4 5 5 6 5 4 4 3 4 5 6 5 5 4 6 7 7 7 7 7 7 7 7 7 7 7 7 7 6 6 6
10 7 8 8 9 10 10 11 11 10 9 10 10 8 9 9 11 11 8 5 5 4 5 5 5 5 5 4 5 5 5 6 6 5 4 4 5 5 6 7 7 7 6 5 6 7 7 7 7 8 7 6 7 7
10 9 7 5 6 7 9 10 8 9 11 11 9 11 11 12 12 8 5 5 4 3 3 2 3 4 4 5 5 5 5 6 6 5 5 5 5 5 4 5 6 4 5 6 6 6 6 6 7 7 6 5 6 6
7 6 10 8 9 8 9 10 11 11 9 8 9 12 11 11 10 5 4 3 3 3 3 4 3 3 4 4 6 6 6 6 6 6 6 5 5 5 6 6 6 8 5 6 6 6 6 6 6 6 6 6 7 7
7 6 7 11 10 10 9 9 8 7 6 8 9 9 8 6 4 4 5 5 5 6 6 5 4 4 4 5 6 6 6 6 7 8 7 6 7 6 6 6 6 7 6 6 7 6 7 7 8 8 8 8 7 8
8 7 8 9 11 10 7 7 7 5 6 6 6 5 6 6 6 7 7 7 7 7 7 7 7 7 6 6 5 5 6 6 6 6 6 6 5 5 6 6 6 7 7 7 8 9 9 9 10 9 10 9 9 9
7 8 9 9 9 7 6 8 8 8 8 7 7 8 7 6 8 10 9 10 10 10 8 7 7 6 6 6 6 6 7 6 7 6 6 6 5 6 6 6 6 6 7 7 8 8 8 9 9 10 11 11 11 11
9 9 9 11 10 9 10 9 8 9 8 9 9 8 9 8 8 10 11 11 9 9 10 10 8 7 7 6 6 6 7 7 7 7 7 6 6 6 6 6 6 6 6 7 7 8 9 9 10 10 10 11 11 11
9 9 9 10 10 10 9 9 10 9 10 10 9 10 9 8 9 12 11 11 12 12 12 11 9 8 8 8 8 8 9 9 9 8 8 8 7 7 6 6 6 7 7 8 8 8 9 10 10 10 10 11 12 13

GFSWCAN_con_lsi_003.txt.gz
Lid_Strength_Index
4 4 4 4 4 4 4 4 4 4 4 4 3 4 4 4 4 1 -0 -2 1 6 4 3 3 5 5 5 8 6 6 7 9 13 13 13 14 11 11 9 11 13 15 15 15 17 18 6 6 12 8 6 6 6
5 5 5 5 4 4 4 4 4 4 4 4 4 4 4 4 4 3 2 -1 -1 3 3 1 1 1 1 2 4 4 6 6 6 10 11 11 13 13 13 15 8 13 10 12 11 11 6 5 6 5 4 6 5 6
5 5 5 5 5 5 4 4 4 4 4 4 4 4 4 4 4 4 1 0 2 10 6 4 4 1 -0 0 -0 6 5 4 5 3 7 10 13 9 14 13 12 9 7 10 10 8 7 6 5 4 4 5 4 4
5 5 5 5 5 5 5 5 5 5 5 5 5 5 5 4 4 4 3 0 2 8 14 8 1 2 0 0 1 1 2 2 3 4 11 13 13 8 11 10 11 9 8 10 10 7 7 6 5 4 4 4 4 4
5 5 5 5 5 5 5 5 5 5 5 5 4 5 5 4 4 4 3 2 1 4 12 10 5 2 1 1 2 1 2 4 5 10 12 11 8 9 9 9 11 8 9 11 12 7 7 6 5 5 5 5 4 5
5 5 5 5 5 5 5 5 5 5 5 5 5 4 4 4 4 4 7 5 2 2 10 13 7 5 3 2 2 3 3 4 5 7 11 8 5 8 12 12 8 6 5 5 8 5 5 5 5 4 5 4 6 6
4 4 4 5 5 5 5 5 5 5 5 5 5 4 4 4 3 6 8 5 3 2 12 12 12 8 8 5 3 4 3 4 5 7 9 8 8 7 11 12 7 5 5 5 4 4 6 5 5 4 5 5 5 5
3 3 4 4 5 5 5 4 4 4 4 4 4 4 3 4 4 6 5 4 3 7 10 13 12 10 7 8 8 4 6 7 7 7 8 8 7 9 12 7 6 5 5 5 5 4 4 4 4 5 5 5 6 6
3 3 4 4 4 4 4 4 4 4 3 3 3 3 3 5 8 7 5 4 4 7 13 13 12 12 6 7 8 7 7 12 6 10 8 7 9 12 8 7 6 5 5 5 4 4 4 5 5 5 5 5 6 6
2 2 3 3 3 3 3 3 3 2 2 3 2 5 9 6 4 4 6 9 10 11 12 12 9 11 6 9 10 10 9 12 12 9 6 10 9 6 5 5 5 5 5 5 6 7 5 6 5 5 5 5 6 7
2 2 3 3 3 3 3 3 3 3 4 2 5 7 4 4 4 7 10 12 10 12 11 10 8 10 7 10 11 9 11 10 13 10 10 11 10 7 6 5 5 5 6 5 5 5 5 5 5 5 5 5 5 6
2 3 3 3 3 3 3 3 3 2 2 3 3 2 3 6 7 10 11 10 11 11 8 9 8 8 7 6 9 9 11 10 13 8 12 12 8 6 6 6 6 5 5 5 5 5 5 5 4 4 4 5 5 6
2 2 2 3 3 3 3 3 3 3 3 2 5 7 7 9 12 13 13 11 11 8 9 9 10 8 8 8 10 10 11 12 8 11 12 9 6 6 6 5 5 5 5 6 5 4 4 4 4 5 5 5 7 6
2 2 2 2 2 2 3 3 3 3 2 7 9 12 10 12 11 9 9 9 8 9 8 7 8 8 8 9 9 11 9 9 12 13 11 7 6 6 5 5 5 5 5 5 5 4 5 6 6 6 7 6 7 7
1 1 1 2 2 2 1 2 2 1 4 8 9 11 11 8 7 8 7 6 6 6 6 7 7 7 9 10 9 9 11 13 11 10 8 5 5 5 5 4 4 4 5 5 4 4 6 6 6 6 6 7 7 7
1 1 2 1 1 1 1 1 1 1 5 7 8 9 8 9 8 9 8 8 5 6 6 6 8 10 10 9 10 11 11 12 9 7 5 4 4 4 4 4 4 4 4 4 3 4 5 6 6 6 6 7 7 7
2 2 2 2 1 1 1 2 3 7 6 8 8 6 6 8 8 7 6 5 4 7 8 8 11 11 8 10 11 9 10 8 6 5 4 4 4 4 3 4 4 4 3 3 3 3 4 5 7 7 8 7 7 7
2 2 1 1 1 2 2 2 5 7 9 7 9 7 7 6 6 6 6 4 6 7 7 9 7 10 11 12 10 7 6 5 4 4 4 3 3 3 3 3 3 3 3 4 4 4 6 7 8 8 7 6 7 7
1 1 1 1 1 2 5 5 4 9 8 7 7 7 5 5 4 4 4 4 4 4 5 7 9 10 9 7 7 6 5 5 5 4 3 3 3 3 3 3 3 3 3 4 5 6 6 7 7 6 6 6 6 5
1 1 1 1 1 4 7 6 3 7 9 7 6 6 6 6 4 6 6 6 5 7 9 9 9 7 6 5 4 4 4 3 4 5 5 4 3 3 3 3 3 3 5 6 6 7 6 7 7 6 5 5 5 5
2 1 1 1 2 2 5 7 7 7 6 7 5 5 6 5 6 6 6 4 6 7 8 6 5 4 3 3 2 3 3 3 4 4 4 5 3 3 3 3 3 5 6 6 6 6 6 6 5 5 6 6 6 6
1 1 2 2 5 5 5 4 5 4 6 6 7 6 6 7 7 6 4 7 7 5 4 4 4 3 3 4 3 2 2 2 2 3 3 3 4 4 4 3 5 5 6 6 5 6 5 5 5 6 6 6 6 6
2 2 4 5 6 6 7 3 7 6 8 8 6 8 8 7 6 4 7 6 6 3 3 3 3 2 3 2 3 3 3 3 3 3 3 3 3 3 4 4 4 6 6 4 4 4 5 6 6 6 6 6 7 7
2 5 5 6 6 8 6 7 6 7 7 8 8 10 9 7 5 8 10 7 4 3 3 3 3 3 3 3 4 3 3 2 3 3 3 4 5 5 4 4 4 3 3 3 4 5 6 6 6 6 7 7 7 7
7 7 6 8 6 8 10 9 8 8 10 8 9 9 8 6 9 9 9 6 5 4 4 3 3 3 4 4 3 3 2 3 4 4 4 3 4 5 4 3 3 3 3 5 6 6 6 6 6 6 7 7 7 7
9 7 8 8 7 8 8 10 9 9 8 9 8 6 6 7 10 10 8 5 5 4 5 5 5 4 4 3 4 3 3 2 4 6 5 4 4 5 5 5 5 5 4 5 5 6 6 6 6 7 7 7 7 7
9 8 6 4 5 6 7 6 6 7 9 9 8 8 9 11 11 8 4 3 3 2 2 2 2 3 3 3 2 2 3 4 5 6 4 3 3 3 3 4 5 3 3 4 5 5 6 6 6 6 6 6 6 6
7 5 8 7 7 5 8 8 8 9 8 6 7 9 10 10 9 5 3 2 2 2 2 1 1 2 2 3 3 3 4 4 5 5 5 4 4 3 4 4 4 6 4 4 5 5 5 5 5 5 6 7 6 6
7 5 5 8 7 7 7 8 8 6 5 6 8 8 7 5 3 3 2 2 3 3 4 3 3 3 3 4 4 4 4 5 6 7 7 6 5 5 4 5 5 5 5 5 6 5 5 5 5 5 6 6 6 7
7 5 7 7 9 9 7 5 6 5 4 4 4 5 5 4 3 3 4 5 5 5 4 5 5 6 6 6 5 4 4 5 5 6 7 6 5 4 5 5 5 5 5 5 6 7 8 7 8 8 8 8 8 8
4 5 7 7 8 6 5 5 5 5 5 5 4 6 6 5 4 5 6 6 7 6 7 6 6 5 6 6 6 6 6 5 5 5 6 5 5 5 5 5 5 5 5 6 7 7 7 7 7 8 8 9 9 9
7 7 8 9 8 6 6 7 6 6 6 6 7 6 6 7 8 7 9 8 8 7 8 8 8 7 6 6 6 6 6 6 6 5 5 5 5 5 5 5 5 5 5 6 6 7 7 7 8 8 9 9 9 9
8 7 7 8 8 8 7 7 7 8 8 8 8 7 7 8 8 10 9 9 9 10 10 9 8 7 7 8 7 7 8 8 9 9 9 9 7 6 5 5 5 6 6 6 7 7 8 8 8 8 9 9 10 10

GFSWCAN_con_lsi_006.txt.gz
Lid_Strength_Index
4 4 4 4 4 4 4 4 4 4 4 3 3 4 4 3 3 1 0 -2 2 5 4 3 3 5 5 5 9 6 7 7 9 13 13 13 14 11 12 10 12 13 14 15 14 16 18 6 7 12 9 6 6 6
4 4 4 5 5 4 4 4 4 4 4 4 3 3 3 3 4 3 2 -2 -1 3 4 1 1 1 2 3 5 5 7 6 7 10 11 11 13 13 13 15 8 13 10 12 11 12 7 5 6 5 5 6 6 6
5 4 4 5 5 5 4 4 4 5 4 4 4 4 4 4 4 3 1 -0 1 9 4 4 5 1 0 1 0 6 5 4 5 4 7 12 13 10 14 13 11 9 7 11 11 8 7 6 5 5 5 5 5 4
5 5 4 5 5 5 5 5 5 5 5 5 5 5 5 4 4 4 2 -0 2 8 14 8 2 3 1 0 1 1 3 3 3 4 10 12 13 8 11 10 11 9 8 10 10 8 7 6 5 5 5 4 4 4
5 5 5 5 5 5 5 5 5 5 5 5 5 5 4 4 4 3 2 1 1 5 12 11 6 3 2 1 2 2 3 4 6 9 12 12 8 9 8 9 11 7 9 11 12 7 7 7 5 4 5 5 5 6
5 5 5 5 5 5 5 6 6 5 5 5 5 4 4 4 4 4 7 4 2 2 9 14 7 6 3 2 3 3 3 4 5 7 10 7 5 9 12 12 7 6 5 5 7 5 5 4 4 4 5 5 5 6
5 5 5 5 6 6 6 6 6 5 5 5 5 4 4 4 4 6 8 5 3 2 12 12 10 8 6 5 4 4 3 5 5 7 10 10 10 8 12 12 7 6 5 4 4 4 6 5 6 4 4 5 5 6
4 4 5 6 6 6 6 6 6 5 5 5 5 4 4 4 5 7 6 5 4 7 10 12 13 12 7 8 8 5 7 8 9 9 10 10 8 10 12 8 6 5 5 5 5 4 5 5 5 5 5 5 6 6
4 4 4 5 6 6 6 6 6 5 5 5 4 4 4 6 8 7 4 4 4 7 12 13 12 12 6 8 9 10 9 12 8 11 9 9 10 12 8 7 6 5 5 5 5 5 5 6 6 5 5 5 6 7
3 3 4 4 5 5 5 5 5 4 4 5 3 6 11 7 4 4 5 9 10 11 11 12 9 10 6 10 11 10 11 12 13 10 7 10 10 6 5 5 4 5 5 5 6 7 6 6 6 6 6 5 5 7
3 3 3 3 4 4 4 4 4 4 4 4 6 9 5 3 4 7 11 12 11 12 11 10 9 9 6 11 12 11 12 12 13 10 10 11 11 7 5 5 5 5 5 5 5 5 5 5 5 6 6 5 6 6
2 3 3 3 3 3 3 3 3 4 4 4 4 3 3 5 7 10 11 9 11 11 9 10 9 8 9 6 10 11 12 11 14 8 11 12 8 6 5 6 5 5 5 5 5 5 5 5 4 5 5 5 6 6
2 2 3 3 3 3 3 4 3 3 3 2 5 8 8 9 12 13 13 11 11 8 9 8 9 7 7 8 9 10 11 12 9 11 12 9 6 5 5 5 5 5 5 6 5 5 4 4 4 6 6 6 6 7
2 2 2 2 3 3 3 3 3 3 3 7 10 12 11 12 11 10 9 10 9 9 8 7 8 8 8 10 10 12 9 9 13 13 12 8 6 5 5 5 5 5 7 6 5 4 5 6 6 6 7 7 7 7
1 2 2 2 2 2 2 3 3 2 5 8 9 12 11 8 7 8 7 7 7 6 6 7 7 8 9 10 9 9 12 13 11 11 8 6 5 4 5 4 5 6 7 6 5 5 5 6 6 7 6 6 7 7
1 1 2 1 1 1 2 2 2 2 7 7 9 10 8 8 9 8 8 7 5 6 6 6 9 11 11 10 11 12 12 12 9 8 6 5 5 4 5 5 4 4 4 4 4 4 4 5 6 6 6 7 7 7
1 3 1 1 1 1 1 3 3 7 7 10 9 6 6 7 8 7 7 6 3 7 9 8 11 11 8 11 12 9 10 8 7 6 5 4 5 4 4 4 5 5 4 4 4 4 4 4 5 6 7 7 7 7
2 1 1 1 1 1 2 2 6 7 9 7 8 7 7 6 6 7 6 4 5 7 7 9 7 10 11 12 11 7 6 5 5 5 4 4 4 4 4 4 4 4 4 4 4 4 5 5 6 7 7 7 7 7
1 1 1 1 1 3 5 5 4 9 8 6 6 6 5 4 4 4 4 5 3 4 5 7 10 11 10 8 7 6 6 5 5 5 4 4 4 4 5 4 4 4 4 4 4 4 5 5 6 6 7 6 7 6
1 1 1 1 1 4 7 7 4 7 8 7 6 6 6 6 4 5 5 5 5 6 8 10 9 8 7 6 5 5 4 4 4 5 5 5 4 4 4 3 3 3 3 3 4 5 5 6 6 6 6 6 6 6
2 1 1 1 2 3 5 6 7 7 6 7 6 6 6 4 5 6 6 5 7 8 9 7 6 5 4 4 3 3 4 3 4 4 5 5 4 3 3 3 3 3 3 4 5 5 6 6 6 6 6 6 6 6
1 1 3 3 5 5 6 4 6 5 6 6 6 6 6 7 7 6 4 7 8 6 5 5 5 4 4 4 3 3 3 3 3 3 4 4 4 4 4 3 3 4 4 4 5 5 6 6 5 6 6 7 7 6
2 2 4 5 7 8 7 3 7 6 9 8 7 8 7 7 5 4 7 6 5 4 4 4 3 3 3 3 3 3 3 3 3 3 3 3 3 3 3 3 3 4 5 5 4 5 6 5 6 6 6 7 6 7
2 5 6 7 7 8 6 8 6 7 6 7 8 9 8 6 5 7 9 7 5 3 4 3 3 4 3 3 4 3 3 2 3 3 3 3 4 4 4 4 4 4 4 4 4 4 5 6 6 7 6 7 7 7
7 7 6 8 6 8 9 9 8 8 9 8 9 9 8 5 9 9 10 7 5 5 4 3 3 4 4 4 3 3 3 2 3 4 3 3 4 5 5 4 4 4 4 5 5 5 5 6 6 6 6 7 7 7
9 7 8 7 7 8 8 10 9 9 8 9 9 7 6 8 10 11 8 5 5 4 5 5 5 4 4 3 4 4 3 2 3 4 5 4 5 5 5 5 5 4 3 4 5 6 5 6 6 6 6 6 7 7
9 8 6 4 5 6 7 6 6 7 9 10 8 8 8 11 11 8 4 3 4 3 2 2 3 3 3 3 3 2 2 2 4 5 4 5 5 4 4 5 5 4 3 4 5 5 5 5 6 6 6 6 6 6
7 6 8 7 6 6 8 8 8 9 8 6 6 9 10 9 9 5 4 2 2 2 2 2 2 2 2 2 2 3 4 4 4 4 5 5 4 4 4 4 4 6 4 4 5 5 5 5 5 5 6 6 5 5
7 5 5 8 7 7 7 8 8 6 5 6 8 8 7 5 4 4 3 2 2 3 4 4 4 4 3 3 4 4 4 4 6 7 7 7 6 4 4 4 5 5 4 5 5 5 4 4 5 5 5 5 6 6
7 5 7 7 9 9 6 5 6 4 4 4 4 5 5 4 3 2 2 3 4 5 5 5 5 5 6 6 6 5 4 4 5 6 7 7 6 5 5 5 5 5 5 5 5 6 6 6 6 6 7 7 7 7
4 5 7 7 8 6 5 4 4 4 4 5 4 6 6 5 3 2 3 4 4 5 6 7 6 5 6 6 6 7 6 5 6 6 6 6 5 5 5 5 5 5 5 5 6 6 7 7 6 7 8 8 8 8
6 7 8 9 8 5 5 5 6 6 6 6 6 5 5 6 7 6 8 8 8 8 7 7 8 7 6 6 5 5 7 7 8 8 8 7 5 5 5 5 5 5 5 6 6 6 7 7 7 7 8 8 9 9
7 7 7 8 8 8 6 7 7 8 7 7 7 6 6 6 8 10 8 9 9 10 10 10 9 8 7 7 7 7 7 8 9 10 10 11 11 10 8 6 5 6 6 6 7 7 7 8 8 8 8 9 10 10

GFSWCAN_con_lsi_009.txt.gz
Lid_Strength_Index
4 4 4 3 3 3 3 3 3 3 3 3 3 3 3 3 3 2 2 1 3 8 6 5 5 7 7 7 12 8 9 11 12 14 14 14 14 15 16 13 15 16 17 16 17 16 18 7 8 13 9 7 6 7
4 4 5 5 4 3 3 3 3 4 3 3 3 4 4 4 3 3 3 0 1 5 5 2 2 2 3 4 6 7 8 8 9 14 14 14 14 14 14 15 11 14 12 15 13 15 9 7 8 6 6 6 6 6
5 4 5 5 5 5 4 4 4 4 4 5 4 4 4 4 4 3 3 1 3 9 5 6 6 3 1 1 1 9 9 5 7 7 11 13 14 13 14 14 14 10 8 12 12 10 8 7 6 5 5 6 5 5
5 5 5 4 5 5 5 5 5 4 4 4 4 4 4 4 4 4 4 2 3 8 13 9 4 4 1 2 2 3 4 4 4 6 12 13 13 9 13 11 11 10 9 10 11 9 8 7 7 6 5 5 5 6
5 5 5 5 5 5 5 5 5 5 5 5 4 4 4 4 4 4 3 3 2 5 12 11 6 4 3 3 3 3 3 5 8 11 13 13 12 11 12 12 12 8 9 11 12 8 8 7 6 5 6 6 6 6
5 5 5 5 5 5 5 5 5 5 5 5 4 4 4 4 4 4 7 4 2 2 10 13 8 7 5 4 5 4 4 5 6 9 12 10 7 9 13 12 8 6 6 5 8 6 6 6 5 4 5 5 6 6
5 5 5 6 6 5 5 5 5 5 5 5 5 4 4 4 3 6 8 6 3 3 12 13 13 10 8 7 6 6 5 6 6 9 11 10 10 8 13 13 8 6 6 6 5 5 6 6 7 6 6 6 5 6
4 5 5 5 6 6 6 5 5 5 5 5 5 5 4 4 5 7 6 5 4 7 10 12 13 12 9 12 12 8 11 10 9 9 10 11 9 11 12 8 7 6 5 6 5 5 6 6 6 6 5 6 6 7
4 4 5 5 5 6 6 5 5 5 5 5 5 5 6 7 9 8 5 5 6 8 12 13 14 14 8 10 11 11 9 12 10 12 10 9 11 12 9 8 7 7 7 7 6 6 7 7 7 6 6 6 6 7
3 4 4 5 5 6 6 5 5 5 5 5 6 9 13 10 5 5 7 11 11 12 13 13 11 12 8 11 12 11 12 12 12 11 9 11 11 7 7 6 6 7 7 6 8 9 9 9 8 7 7 7 6 7
3 3 4 4 4 5 5 5 5 5 6 7 10 12 8 5 7 10 12 13 12 13 13 12 10 11 8 11 11 11 12 12 14 14 14 16 14 9 6 7 7 6 6 6 6 6 7 7 8 7 8 8 8 8
3 3 3 4 4 4 4 4 4 6 6 6 7 6 7 9 11 12 13 12 13 14 11 11 10 8 10 7 10 11 12 11 15 12 12 15 11 7 7 7 6 7 7 6 6 7 7 7 6 8 8 8 9 8
2 2 3 3 3 3 4 4 5 4 4 5 9 11 11 12 14 17 17 14 14 11 9 10 10 10 10 9 10 11 13 13 10 13 14 13 8 7 7 7 7 6 8 9 7 7 6 6 6 8 7 8 10 7
1 2 2 3 3 3 4 4 4 4 6 10 12 17 15 14 15 13 13 11 10 10 10 10 10 12 10 11 11 14 13 12 14 15 16 12 8 7 6 6 6 7 10 9 8 7 8 9 8 9 10 9 7 9
2 2 2 2 2 3 3 3 3 4 8 13 12 17 14 13 11 11 10 10 10 9 9 10 11 12 14 15 13 15 17 15 16 16 13 10 8 7 7 7 7 9 10 10 7 9 9 8 8 8 9 9 8 9
1 2 2 1 2 2 2 3 3 5 9 10 11 14 12 13 11 10 9 9 8 9 10 11 14 17 17 15 17 17 17 17 15 13 10 9 8 8 7 8 8 7 7 7 6 6 7 8 9 8 7 7 7 8
1 4 1 1 1 2 2 4 7 9 11 12 15 11 9 10 9 9 8 9 7 11 15 14 17 16 13 17 17 12 15 14 12 11 10 8 8 8 7 7 8 8 7 7 6 6 6 7 10 6 6 5 6 8
3 1 1 1 2 2 3 4 9 11 14 12 14 13 12 11 8 8 8 8 8 11 12 13 11 17 18 18 17 14 12 12 11 10 10 8 7 7 6 7 6 6 6 7 7 7 8 10 7 6 5 6 8 9
2 2 1 1 1 4 9 9 7 11 12 11 10 10 10 11 10 10 9 9 9 9 11 13 17 17 14 13 15 13 12 12 10 8 8 7 7 7 6 6 6 6 6 6 6 6 7 6 5 5 5 7 8 9
1 1 1 1 1 8 9 9 5 10 11 10 10 11 11 11 10 8 7 6 9 11 13 14 14 11 13 10 10 10 9 8 8 8 7 6 6 6 6 6 5 5 5 6 6 8 6 5 5 5 6 7 8 8
2 2 1 2 4 4 8 10 9 8 10 11 10 10 11 10 11 8 10 7 9 10 13 10 9 8 8 8 7 7 6 6 7 7 7 7 6 6 6 5 5 6 7 6 5 4 5 5 5 5 6 6 6 7
3 1 5 4 6 7 9 8 10 9 11 11 11 10 14 14 14 12 10 10 10 10 8 8 8 7 7 7 6 6 6 6 6 7 8 7 7 6 5 5 6 5 5 5 5 5 5 4 5 6 6 6 10 9
2 3 5 6 8 9 12 8 12 10 14 14 12 13 14 14 11 8 14 10 9 6 6 6 6 6 6 5 6 5 5 5 6 6 7 7 5 7 6 5 5 5 5 5 4 5 5 5 5 6 7 8 9 8
2 6 8 9 13 15 10 10 8 11 12 13 14 15 13 12 10 13 14 13 7 7 7 7 6 6 6 6 6 6 6 6 7 8 7 7 8 6 6 5 5 5 4 4 4 5 5 5 6 7 8 7 7 8
8 8 8 11 10 11 11 13 11 13 16 14 15 16 14 12 15 16 16 10 11 10 8 7 7 6 8 8 8 7 6 6 7 7 7 8 9 5 5 5 5 5 4 5 5 5 5 5 7 7 8 7 8 8
10 9 10 12 10 11 13 17 15 15 15 16 14 12 13 15 17 16 11 11 11 9 9 9 9 9 8 6 7 8 7 7 8 9 7 6 5 6 6 7 7 6 5 5 5 5 5 6 8 8 8 7 7 7
10 11 9 7 8 9 13 12 10 12 16 15 15 15 13 15 17 12 9 8 7 7 6 6 5 6 7 6 7 8 8 9 7 6 5 5 5 5 6 7 7 7 5 4 5 5 6 7 7 7 6 6 7 8
11 10 12 11 10 10 13 14 14 14 14 10 11 14 15 15 13 9 7 6 7 6 6 5 5 5 5 6 8 9 6 6 5 5 5 5 5 6 5 5 5 5 6 4 5 5 5 5 5 5 6 6 7 7
11 9 10 14 13 12 12 12 12 10 8 9 12 13 12 9 9 9 8 6 5 6 9 9 8 6 5 7 8 6 5 5 6 8 8 9 11 10 8 6 5 5 5 5 5 5 5 5 5 5 6 7 6 6
12 8 12 14 14 14 11 9 11 10 7 6 5 7 7 6 4 5 5 5 5 5 6 6 5 6 7 7 7 7 6 5 5 6 10 13 11 7 6 6 6 5 5 5 6 8 6 5 6 6 7 8 8 9
9 10 12 11 11 8 7 6 6 8 9 8 6 7 7 6 6 9 10 8 7 6 6 7 7 6 7 7 8 8 9 8 10 9 9 8 7 6 6 7 8 9 8 7 8 8 7 7 7 8 8 9 9 9
11 11 10 11 10 8 7 9 10 10 9 10 7 6 6 6 8 9 12 10 9 9 9 9 9 9 8 10 8 9 10 12 12 12 15 15 12 10 8 8 7 8 8 9 9 9 8 8 8 9 9 10 10 11
11 9 8 9 10 13 12 11 12 12 10 9 9 8 8 9 10 12 12 11 11 13 13 12 11 11 9 11 9 10 11 12 12 11 12 12 14 13 13 13 11 9 8 8 9 9 9 10 10 10 10 12 13 15

GFSWCAN_con_lsi_012.txt.gz
Lid_Strength_Index
4 4 4 3 3 3 3 3 3 3 3 3 3 3 3 3 3 2 3 2 4 8 6 5 5 7 7 9 13 9 9 11 12 14 15 17 15 16 16 14 16 16 18 16 18 17 18 9 9 12 10 9 7 7
3 4 4 4 3 3 3 3 3 3 3 3 3 3 3 3 3 3 4 2 2 5 6 3 3 2 4 5 6 8 9 10 10 13 14 16 15 15 16 15 12 14 13 15 14 15 10 8 8 8 7 7 8 7
4 4 4 5 4 4 3 3 3 4 4 4 3 3 3 3 3 3 4 3 4 10 7 6 6 3 1 2 3 9 12 6 8 8 13 13 14 14 14 14 13 11 9 14 12 10 9 8 6 6 7 7 6 6
5 5 4 4 5 5 4 4 4 3 4 4 4 4 4 4 3 3 5 4 5 9 13 9 5 5 2 2 3 3 5 4 5 7 12 13 14 10 13 11 12 10 9 11 10 9 8 7 7 6 5 6 6 6
5 5 5 5 5 5 5 5 5 5 4 4 4 4 4 3 4 4 4 3 3 5 12 11 7 5 4 3 3 3 4 5 9 11 13 13 12 11 13 13 12 8 9 11 12 7 8 7 6 5 7 6 6 7
5 5 6 6 6 5 5 5 5 5 5 5 5 4 4 4 4 4 7 4 3 2 10 13 8 8 6 5 5 5 5 6 7 10 12 10 8 10 13 13 10 7 6 5 8 6 6 6 6 6 7 7 6 6
5 5 6 6 6 6 6 6 5 5 5 5 5 5 4 5 4 6 8 6 3 2 12 12 13 10 9 8 7 7 6 7 7 9 11 10 10 7 13 13 8 6 6 5 5 5 7 7 8 6 7 6 6 6
5 5 6 6 6 6 6 6 5 5 5 5 5 5 5 5 5 7 6 5 3 7 10 13 13 12 9 13 13 10 11 11 10 9 11 11 11 11 12 8 7 6 5 5 6 6 6 7 7 6 6 6 7 8
4 4 5 6 6 6 5 5 5 5 5 5 5 5 6 7 9 8 6 6 6 7 12 13 14 14 8 10 12 12 12 13 11 13 11 10 12 12 9 8 7 6 7 7 7 7 7 7 7 7 8 7 7 7
3 4 4 5 5 5 5 5 5 5 5 5 6 9 13 10 5 6 8 11 12 13 13 14 12 13 9 13 13 13 13 13 14 12 9 12 11 7 6 5 6 8 7 8 9 10 9 9 9 10 9 8 8 8
3 3 4 4 5 5 5 5 5 5 5 7 11 12 8 5 8 11 14 14 14 14 14 13 13 13 10 12 12 12 13 13 15 15 12 15 14 10 8 9 8 7 7 7 6 7 8 8 9 8 9 8 8 8
2 3 3 4 4 4 4 4 5 6 7 7 8 7 8 11 12 13 15 14 15 16 14 14 12 10 11 9 12 12 13 13 16 14 15 15 13 10 9 8 8 7 7 7 7 7 7 7 7 8 8 8 8 8
2 3 3 3 3 3 3 4 4 5 5 8 10 12 13 13 17 19 17 16 15 13 11 12 12 11 11 10 11 15 15 17 12 14 14 14 10 8 7 7 7 7 8 9 6 6 6 7 7 9 9 8 10 10
2 2 3 3 3 3 4 4 4 5 7 12 15 16 16 17 16 16 15 12 11 11 11 11 11 13 12 15 12 14 15 13 16 16 17 13 10 8 8 7 8 8 10 10 9 8 9 9 10 10 11 10 12 7
1 2 2 3 3 3 4 4 4 6 10 15 14 17 15 13 12 11 10 10 10 10 11 13 14 14 15 17 13 15 18 16 14 17 14 11 9 8 8 8 8 10 10 9 8 9 10 10 10 8 8 10 8 7
1 2 3 2 2 2 3 3 4 7 9 14 14 15 14 13 13 11 10 10 10 12 13 13 16 18 18 18 19 19 19 18 16 15 12 9 8 8 8 8 8 8 8 8 8 8 7 9 8 7 9 7 6 5
2 4 1 1 2 2 2 4 8 11 15 16 18 13 11 13 14 10 11 10 8 10 16 17 19 17 15 21 19 14 17 15 13 12 10 9 9 8 8 8 9 9 7 7 7 7 7 7 9 8 9 5 6 5
4 2 1 1 2 3 4 7 11 13 15 14 16 16 15 14 11 14 10 8 8 11 13 15 13 18 19 20 18 15 14 12 11 11 10 9 8 8 7 8 7 7 7 6 7 7 8 9 9 7 5 5 5 6
2 2 1 1 2 7 10 8 10 15 14 14 13 13 13 14 13 12 13 10 7 9 13 15 19 19 17 15 17 16 15 14 11 8 8 8 8 7 7 7 7 7 7 7 6 6 6 6 6 4 5 5 5 7
1 1 1 1 2 8 10 12 8 11 13 11 12 13 13 13 13 15 9 7 7 8 9 11 15 14 13 11 11 11 10 10 11 10 8 7 7 7 7 7 7 6 6 6 7 9 7 6 6 5 6 5 7 8
2 2 2 2 5 7 10 12 12 11 10 11 11 11 13 14 14 13 9 9 9 10 11 10 10 9 9 9 9 8 8 8 8 8 8 8 6 8 7 6 6 7 7 7 6 5 5 6 5 4 5 5 5 6
4 2 5 4 8 10 12 10 11 11 12 12 13 12 16 17 17 11 12 9 9 9 9 9 8 8 8 8 7 7 7 7 6 7 8 7 8 7 7 7 9 6 5 5 5 5 5 5 4 5 5 5 6 7
3 4 7 7 12 13 14 10 13 11 15 16 14 16 18 18 14 10 15 11 10 8 6 7 7 7 7 6 6 6 6 6 6 6 7 8 7 8 9 8 10 5 6 5 5 5 5 4 5 5 5 6 7 9
4 8 10 11 14 18 14 10 12 13 17 16 17 18 15 16 13 16 16 15 8 8 8 7 7 7 7 7 7 6 5 7 7 8 8 9 9 9 9 6 5 5 5 5 4 5 4 4 6 7 8 7 8 7
13 11 11 11 12 13 14 17 13 16 17 19 19 19 16 15 17 20 17 11 12 11 9 8 8 7 8 7 8 7 7 7 8 8 9 9 11 10 7 5 5 5 5 5 5 4 5 5 6 6 7 8 8 8
16 12 10 11 15 15 15 19 19 17 20 19 17 15 19 19 19 17 13 13 14 11 13 12 10 11 8 7 8 8 7 8 8 10 9 9 9 8 7 8 7 7 7 5 5 5 5 5 6 7 8 9 8 8
14 14 12 9 9 11 17 17 15 17 19 18 18 18 17 16 18 13 10 9 9 9 8 8 7 7 7 7 7 7 10 9 8 7 6 6 5 6 6 7 8 7 6 5 5 5 5 5 6 6 7 7 6 6
12 15 12 13 12 12 14 18 18 17 16 13 15 17 15 15 14 10 9 8 8 7 7 6 6 5 6 8 10 10 10 9 9 7 7 9 9 10 10 7 6 5 5 5 5 5 5 5 5 5 6 6 6 6
10 12 11 13 13 11 10 13 14 12 10 12 15 17 15 11 11 11 9 8 8 7 8 8 8 8 6 6 8 7 7 7 7 8 8 8 10 13 11 7 7 6 6 6 6 6 5 5 5 5 5 5 5 6
12 9 11 15 14 14 12 12 14 13 12 8 9 10 10 10 9 7 8 8 12 8 9 9 7 6 6 7 7 8 7 6 6 8 11 14 13 10 7 7 7 7 6 6 9 10 9 9 7 6 7 7 7 8
15 17 17 18 16 14 11 13 15 14 15 12 9 9 8 7 12 11 12 9 8 7 7 7 7 8 9 9 9 9 10 12 12 13 14 15 13 11 9 8 7 11 16 15 14 13 11 12 10 9 9 9 9 9
18 16 16 14 11 12 13 12 13 13 13 17 10 16 15 14 12 13 12 13 11 12 12 12 12 13 11 13 12 12 13 14 14 14 14 15 14 14 13 13 11 10 14 15 15 14 13 12 12 12 11 11 11 12
17 19 18 18 18 17 15 14 14 16 19 14 11 10 10 13 11 14 14 12 14 15 15 14 14 13 12 11 11 12 13 12 12 11 12 13 14 15 15 15 14 13 13 13 14 15 16 15 15 15 15 16 16 17

GFSWCAN_con_lsi_015.txt.gz
Lid_Strength_Index
4 3 3 3 3 3 3 3 3 3 4 3 3 3 3 3 4 3 4 3 5 9 7 5 5 7 7 9 12 9 10 12 12 15 17 17 21 16 16 14 16 17 18 19 18 18 19 10 10 13 11 10 9 9
4 4 4 3 3 3 3 3 3 3 3 4 3 3 3 3 3 3 4 2 3 5 6 4 3 3 4 5 7 9 9 10 10 12 13 15 15 17 17 16 13 15 13 16 15 15 10 9 8 8 8 9 9 9
4 4 4 4 4 4 4 3 3 3 3 4 3 3 3 3 3 3 4 4 5 10 7 6 6 5 2 3 4 9 12 8 10 9 12 13 14 14 16 14 13 11 9 13 12 10 9 8 6 6 7 8 7 6
5 4 4 5 5 4 4 4 4 4 4 4 3 4 4 3 3 3 4 4 5 8 12 9 6 5 3 3 3 4 5 6 7 10 13 13 14 10 13 11 12 10 10 11 11 9 8 8 7 6 6 6 7 7
5 5 5 5 5 5 5 5 4 4 4 4 4 4 3 3 3 3 4 3 2 4 11 11 7 5 4 3 5 5 5 7 9 12 13 13 12 12 12 13 13 9 10 11 12 7 8 7 6 5 8 8 7 8
5 5 5 5 5 5 5 5 5 5 4 4 4 3 3 3 3 3 6 3 2 2 10 12 8 8 6 6 5 5 5 6 7 10 12 11 9 10 13 13 9 7 6 6 8 6 5 6 6 6 8 7 7 7
5 6 5 5 5 5 5 5 5 5 5 5 5 4 4 4 3 5 7 5 3 2 11 12 12 10 9 8 8 8 7 8 8 10 12 10 10 8 13 12 8 7 6 6 5 5 7 8 9 7 7 6 6 6
5 6 6 5 6 6 5 5 5 5 5 5 5 5 5 5 5 6 6 5 4 7 10 13 13 12 10 14 13 9 12 11 12 10 12 12 11 12 13 8 8 8 7 6 7 7 7 7 7 8 8 8 9 8
5 5 6 6 6 6 6 5 5 5 5 5 5 5 6 7 9 8 6 6 6 7 13 13 13 13 9 11 12 12 11 13 12 13 12 11 13 13 10 9 8 8 8 9 9 10 10 10 10 9 9 9 9 9
3 4 5 5 5 5 6 5 5 5 5 5 6 9 13 10 6 6 8 11 12 13 13 14 12 13 9 13 13 12 13 13 14 13 10 13 12 9 11 10 9 10 9 9 10 10 10 10 10 9 9 9 9 9
3 3 4 5 5 5 5 6 5 5 5 8 11 12 8 5 8 11 13 13 13 14 14 13 13 13 10 13 13 13 14 14 16 17 13 16 17 13 11 11 10 9 9 8 7 7 7 8 9 9 9 8 8 8
2 3 3 4 4 4 4 5 6 6 7 8 8 7 9 11 13 13 14 14 14 16 13 14 12 11 12 10 13 13 14 14 20 16 15 17 14 11 10 10 9 8 8 8 8 8 8 7 7 7 8 8 8 8
2 2 3 3 4 3 4 4 5 5 6 8 10 12 12 14 16 19 18 17 16 14 13 12 13 13 12 12 13 14 16 17 13 16 18 15 11 10 9 8 8 8 9 11 9 8 7 7 7 9 9 9 10 9
1 2 3 3 3 4 4 4 5 6 9 14 14 16 19 19 16 18 18 15 13 12 12 12 13 14 13 18 14 16 16 14 16 18 18 13 11 10 9 9 10 9 11 10 9 9 9 10 10 10 11 10 11 11
1 1 2 3 3 4 4 4 4 7 11 15 17 20 17 15 13 12 12 11 11 11 12 15 13 14 14 18 14 15 17 17 15 17 15 12 10 10 10 10 9 10 10 11 9 10 10 11 11 10 9 10 10 10
1 2 3 2 3 3 3 5 7 9 11 15 17 17 13 13 14 12 11 11 11 12 14 15 19 21 20 20 19 17 20 19 16 16 13 11 10 10 9 9 8 8 8 8 8 8 8 9 10 8 8 9 9 8
2 4 2 2 2 3 3 7 9 12 16 18 19 13 17 15 17 15 11 12 11 12 18 18 20 18 17 22 21 15 18 16 14 13 12 10 9 9 8 8 9 9 8 8 7 7 7 7 9 10 10 7 7 7
4 2 1 2 2 3 5 8 13 14 16 16 17 18 15 17 11 10 12 13 10 11 15 16 14 20 22 21 19 16 14 14 13 12 11 9 9 8 8 8 7 7 7 7 8 8 8 9 9 8 7 6 7 5
2 2 1 2 3 7 9 8 10 15 15 15 14 14 15 17 15 13 15 12 9 9 11 17 21 20 17 15 17 17 17 15 12 10 9 9 8 8 8 7 7 7 7 7 7 7 6 6 6 6 6 5 6 5
1 1 2 2 4 8 12 12 9 12 14 12 13 14 14 14 15 12 14 14 9 9 10 12 15 14 14 12 11 11 11 10 11 11 9 8 8 8 7 7 7 7 7 7 8 10 6 6 6 5 5 5 5 6
3 3 3 4 7 9 11 13 13 12 11 12 12 12 14 15 13 16 10 7 9 10 11 10 11 10 9 10 9 9 9 9 9 10 9 8 7 8 8 7 7 8 9 9 6 5 5 5 5 4 5 5 5 5
4 2 6 6 10 13 12 11 12 12 13 14 14 14 18 19 18 11 13 10 9 10 9 10 9 8 9 8 8 8 7 7 7 8 9 8 9 8 8 9 10 11 9 6 6 6 5 5 4 4 4 5 6 7
4 5 8 9 14 16 16 11 15 12 16 16 16 16 18 19 15 11 13 11 11 8 7 8 7 7 7 7 7 7 7 7 7 7 8 8 8 8 9 9 10 11 7 7 5 5 5 4 4 4 4 5 6 7
5 9 14 14 17 18 16 10 12 15 18 16 19 19 17 18 15 18 17 16 10 9 9 7 7 8 8 8 8 7 6 7 7 9 9 10 9 8 9 8 9 9 7 5 6 6 5 5 4 6 8 6 7 8
13 12 15 14 11 14 18 18 17 16 17 20 20 21 17 17 18 21 18 13 14 12 9 9 9 8 9 9 10 8 8 7 8 8 7 9 11 11 8 8 9 8 8 10 7 6 5 5 5 6 7 7 9 9
18 15 11 15 13 17 16 19 16 18 22 21 19 17 21 21 20 18 14 13 15 12 13 13 12 13 10 8 8 8 6 7 8 10 9 8 9 8 7 7 7 9 10 8 6 6 7 6 6 6 6 6 7 8
18 14 11 10 10 12 18 19 16 19 21 19 19 20 20 19 19 14 11 10 10 10 9 8 8 7 7 6 7 8 9 10 8 8 9 7 6 6 6 7 7 8 7 6 6 7 7 6 6 6 6 6 6 6
13 14 13 13 14 14 18 21 19 18 16 14 17 19 16 16 14 11 9 9 9 8 7 6 7 6 7 9 10 12 10 8 7 9 10 9 8 11 9 11 11 7 7 6 6 6 7 6 6 6 6 6 6 5
10 11 14 18 16 15 13 14 15 13 11 12 16 18 14 12 12 12 9 9 9 10 11 10 9 13 12 6 6 6 6 7 11 11 9 9 10 11 13 8 7 8 7 7 6 7 8 8 8 8 7 7 5 5
14 10 10 11 12 12 11 10 14 14 13 10 10 10 10 12 12 12 12 12 12 14 13 11 8 8 6 7 7 9 9 9 9 10 13 15 15 16 9 9 7 7 8 11 14 15 13 14 13 11 9 9 8 9
17 18 18 20 18 15 13 16 20 19 18 14 14 10 9 11 16 14 15 15 11 9 9 10 9 11 11 12 13 13 13 15 15 15 14 15 15 15 14 13 10 9 14 18 18 18 17 16 15 15 13 12 11 11
15 17 17 19 16 14 20 17 16 15 12 19 10 17 18 16 16 17 15 15 15 15 16 16 15 15 13 13 13 14 13 13 13 13 13 14 15 14 14 14 14 15 13 13 16 15 15 16 18 16 14 15 15 16
22 25 25 24 21 17 19 18 19 19 22 20 12 12 15 14 15 15 15 15 16 15 15 14 14 13 13 13 13 14 13 12 12 11 12 13 15 15 16 17 18 17 16 16 16 17 18 20 21 20 19 19 19 19

GFSWCAN_con_lsi_018.txt.gz
Lid_Strength_Index
4 4 3 3 3 3 3 3 3 3 3 3 3 3 3 3 4 3 4 4 5 10 8 6 6 7 8 9 12 10 10 12 12 14 16 17 21 16 17 15 16 16 18 19 18 18 20 11 11 14 11 10 9 9
4 4 4 4 3 3 3 3 3 3 3 4 3 3 3 3 3 3 4 4 4 6 7 5 5 5 5 6 8 10 9 11 11 13 14 16 18 19 17 16 13 16 13 15 14 16 11 10 9 9 8 8 9 9
4 4 4 5 4 3 3 3 3 3 3 3 4 3 3 3 3 3 4 5 6 10 8 7 7 5 3 3 4 9 12 8 10 10 14 14 17 15 15 15 14 12 10 13 13 11 10 8 7 7 8 8 7 7
5 5 5 4 4 4 3 3 3 3 3 3 4 4 4 4 3 3 4 5 5 8 13 9 6 6 3 3 4 5 6 7 8 10 13 14 13 10 13 11 12 11 10 11 11 9 8 8 8 7 7 8 8 8
5 5 5 5 5 5 4 4 4 3 3 3 3 3 3 3 3 3 4 4 3 5 12 10 7 5 4 4 4 6 6 7 9 12 13 13 12 12 13 12 13 9 10 11 12 8 8 8 8 8 10 10 10 8
5 5 6 6 5 5 4 4 4 4 4 4 4 3 3 3 3 3 5 3 3 2 9 12 7 8 7 6 6 6 6 7 8 10 12 11 8 10 13 13 9 8 7 6 8 6 8 9 9 10 11 10 8 7
5 5 5 6 5 5 5 5 5 5 5 4 5 4 3 3 2 4 6 5 3 2 10 12 11 11 10 9 8 8 7 7 8 11 12 11 10 9 13 12 8 7 7 7 6 7 9 9 10 9 9 8 9 10
5 5 6 6 6 5 5 5 5 5 5 5 4 4 3 3 4 6 6 5 3 6 9 12 12 12 10 14 13 10 12 11 11 10 12 12 11 12 13 10 9 8 7 9 11 10 9 9 9 11 10 10 11 10
5 5 6 6 6 6 5 5 5 5 5 5 5 5 5 7 9 8 6 5 6 7 13 14 13 13 9 11 12 12 12 13 12 13 13 11 13 13 13 12 12 11 10 12 11 11 10 10 10 10 10 10 11 11
4 5 5 6 5 6 5 5 5 5 5 5 6 9 13 10 6 6 8 11 11 12 13 13 12 13 10 13 13 12 13 13 14 13 12 13 13 12 12 11 11 12 11 10 12 12 11 11 10 10 10 9 9 10
3 4 5 5 5 6 5 5 5 5 6 8 11 12 8 6 8 11 13 13 13 14 13 13 13 13 10 13 13 13 13 13 16 17 14 15 15 14 12 12 11 11 10 9 8 9 8 8 10 9 9 9 9 9
2 3 4 5 5 5 6 5 5 6 7 7 8 7 9 11 13 13 14 14 14 15 14 13 13 11 12 11 12 13 14 14 18 16 17 20 16 13 12 12 11 11 11 10 10 10 10 9 9 9 9 8 9 8
1 2 3 4 4 4 5 5 5 6 7 8 10 12 13 14 15 15 19 17 16 14 13 13 13 13 12 12 13 14 16 19 15 18 19 17 14 11 11 10 11 10 10 12 10 9 9 10 9 10 10 9 10 10
1 2 2 3 3 4 4 4 6 7 9 13 14 15 16 17 17 18 18 16 15 13 13 13 14 14 14 15 15 17 16 16 19 21 20 16 12 11 11 11 12 11 12 12 10 10 10 10 10 10 11 10 11 11
1 2 2 2 3 3 4 5 5 8 11 15 16 19 18 17 15 13 12 12 12 12 12 13 14 16 15 18 15 17 17 18 18 20 18 13 11 11 11 10 10 11 12 12 9 10 11 11 11 10 9 10 11 11
1 2 3 2 3 3 4 6 8 9 13 16 18 17 15 14 14 13 12 12 11 12 13 14 20 21 20 18 18 17 19 20 19 19 14 12 11 10 10 10 10 9 9 9 8 9 9 10 10 8 8 9 9 10
1 4 2 2 3 4 4 8 10 13 15 18 18 14 17 17 16 18 11 11 10 12 15 20 22 20 18 23 21 17 20 18 16 15 14 11 9 9 9 9 10 9 8 8 8 8 8 8 10 11 10 7 8 7
3 2 1 2 3 4 6 9 13 14 15 15 17 18 13 16 15 17 13 14 13 15 16 16 16 22 24 23 21 18 16 16 15 14 11 10 9 9 8 9 8 8 8 8 9 9 9 10 9 7 7 6 6 5
2 2 2 2 4 8 10 10 10 15 15 15 14 15 16 17 16 13 15 14 11 10 12 15 23 20 19 16 18 19 19 16 12 11 10 9 9 9 8 8 8 8 8 8 8 7 7 7 6 7 7 6 6 5
2 2 2 3 4 10 13 10 10 12 14 13 13 14 15 15 13 12 13 16 13 12 12 13 16 15 15 14 13 13 12 11 12 12 10 10 9 8 8 7 7 7 7 7 8 10 8 7 6 7 8 5 5 5
3 3 4 5 9 10 11 13 13 13 12 13 13 13 16 13 12 12 15 12 14 15 14 11 13 11 10 10 9 9 9 9 10 10 10 9 9 9 8 7 8 9 10 10 11 8 8 6 6 5 5 4 4 4
4 3 6 7 12 14 13 12 12 13 14 14 15 14 19 19 16 12 13 11 11 12 10 10 9 9 9 9 8 8 8 8 8 9 10 9 10 10 10 9 12 11 11 10 9 9 7 6 6 5 4 4 4 6
4 6 11 14 16 17 16 12 16 13 17 17 17 17 19 20 17 11 11 10 11 9 9 9 8 7 8 7 8 8 7 8 8 8 8 9 9 9 10 10 11 9 9 8 10 9 7 6 5 5 4 5 5 6
5 12 16 17 18 17 17 12 13 16 19 19 19 20 18 18 15 13 15 16 11 10 9 8 8 9 9 8 9 8 7 8 8 10 9 10 10 8 9 9 11 11 7 8 9 8 8 6 5 6 6 7 8 8
12 14 16 15 12 15 17 13 14 17 20 23 20 21 19 18 19 20 19 14 15 14 11 10 10 9 10 11 11 9 9 8 9 9 7 9 10 11 10 10 10 7 7 13 8 7 7 6 7 7 6 6 7 9
19 15 18 19 13 18 19 21 16 18 23 22 18 19 23 22 21 18 15 14 15 13 15 14 13 13 11 9 10 10 8 9 10 11 8 9 9 9 10 7 7 7 9 8 7 7 7 7 7 7 7 7 7 6
18 14 10 11 12 14 19 21 18 21 23 20 20 22 21 20 20 14 12 11 10 10 9 9 9 9 8 8 8 9 11 11 9 8 9 8 6 5 6 7 9 9 9 7 7 7 7 7 8 8 8 7 7 6
16 15 14 11 12 16 20 22 21 19 18 15 18 19 18 17 15 11 10 9 9 9 9 8 8 9 10 10 10 12 8 8 11 10 11 11 10 11 11 11 12 8 8 7 8 7 7 9 9 9 9 9 8 7
11 12 15 15 17 19 17 15 16 14 11 12 14 16 15 12 11 11 11 12 13 11 12 12 11 13 11 12 12 8 6 6 8 9 12 15 12 11 11 10 9 8 7 8 12 12 13 14 15 16 13 11 10 9
13 15 16 20 18 16 14 12 15 15 15 13 14 12 11 13 15 14 14 12 11 10 9 9 8 8 8 8 9 9 11 11 10 10 13 15 14 14 13 12 11 9 9 10 10 14 14 17 16 16 15 14 13 13
18 18 17 18 17 16 15 20 22 21 21 17 16 13 10 13 14 15 15 15 14 13 14 15 14 14 14 14 13 13 13 14 15 15 15 16 14 14 14 14 14 13 13 11 13 18 20 21 21 21 15 17 18 17
13 19 19 20 18 18 22 22 23 22 20 22 13 20 20 18 18 16 13 14 15 16 16 16 16 16 13 12 12 13 13 13 14 14 15 15 15 15 16 16 17 19 20 19 20 21 23 24 23 21 19 19 19 19
25 26 28 25 21 20 23 21 22 22 24 26 24 24 25 20 20 16 13 13 13 15 16 15 14 14 13 13 14 14 14 14 14 14 14 15 17 17 19 21 23 23 22 22 22 24 23 24 24 23 22 22 22 22

GFSWCAN_con_lsi_021.txt.gz
Lid_Strength_Index
4 4 3 3 3 3 3 2 3 3 3 3 3 3 3 3 4 2 2 3 5 10 7 5 5 7 7 8 10 8 9 10 11 13 13 14 15 13 13 13 15 14 16 16 16 17 18 10 9 12 9 8 8 8
4 4 4 4 3 3 3 3 3 3 3 3 3 3 3 3 3 3 4 3 4 6 6 4 3 3 4 5 7 8 8 9 9 12 13 14 14 16 15 15 12 14 12 13 13 12 9 9 8 7 7 8 8 8
4 4 4 4 4 3 3 3 3 3 3 4 3 3 3 3 3 3 4 4 5 10 7 6 6 4 3 3 3 7 10 7 8 7 10 12 13 13 14 14 12 11 10 12 12 9 8 7 6 6 7 8 9 9
5 5 5 5 4 4 3 3 3 3 3 3 3 3 3 3 3 3 4 4 5 8 13 8 5 5 3 2 3 4 5 6 7 9 12 13 13 9 13 10 11 10 10 10 11 8 8 7 7 8 9 10 10 10
5 5 5 5 5 5 4 4 3 3 3 3 3 3 3 3 3 3 4 3 4 5 11 10 7 5 5 3 3 4 5 6 8 11 12 12 11 11 11 11 12 9 9 11 12 7 8 9 9 9 11 11 10 9
5 5 5 5 5 5 5 5 5 4 3 3 3 3 3 3 3 2 6 4 3 3 10 12 8 8 7 5 4 4 4 5 6 9 12 10 8 9 13 13 9 7 6 6 7 6 8 9 10 10 10 10 9 9
5 5 5 5 6 5 5 5 5 4 3 3 3 3 4 3 2 4 5 5 3 3 10 11 11 10 8 7 7 7 6 6 7 10 12 11 11 9 13 13 8 8 8 9 8 8 10 9 10 9 10 10 9 9
5 5 5 5 6 5 5 5 5 4 4 3 3 3 3 4 4 5 5 4 2 5 8 12 11 11 9 11 11 9 10 10 11 10 12 12 11 12 13 11 11 10 11 12 11 10 11 10 10 10 9 8 9 9
5 5 6 6 5 5 5 5 5 5 4 4 3 4 5 6 8 7 5 4 5 6 11 13 13 13 9 11 11 12 11 13 11 13 13 11 13 13 13 13 13 12 11 12 11 11 10 11 10 9 9 9 10 9
3 5 6 6 6 5 5 5 5 5 5 4 5 7 12 10 6 6 7 9 10 12 12 13 12 13 9 13 13 12 13 13 14 13 11 13 13 13 12 11 11 11 10 10 11 12 11 11 10 10 10 9 8 8
2 3 4 5 5 5 5 5 5 5 5 7 11 12 8 6 8 11 13 13 13 14 13 13 13 13 11 12 13 12 13 13 15 15 13 14 14 14 12 11 11 10 10 9 9 9 9 9 10 10 9 8 8 8
2 2 3 4 4 5 5 5 6 6 7 7 8 7 9 11 13 13 14 14 14 14 13 13 13 12 12 11 12 13 13 14 17 15 15 17 15 12 11 11 10 10 10 10 9 10 10 9 9 9 9 9 8 8
1 2 2 3 4 5 5 5 5 6 7 8 11 13 13 14 14 15 16 16 15 14 13 13 13 13 12 12 13 13 15 16 14 17 17 16 13 11 10 10 11 10 10 11 10 9 9 9 9 10 9 9 9 9
1 1 2 2 3 4 4 5 6 7 9 12 13 15 15 16 16 16 16 15 13 13 13 12 13 13 14 14 15 16 16 15 17 19 18 14 11 10 10 10 11 10 12 12 10 9 10 10 10 10 10 10 10 9
1 1 1 2 2 3 5 5 6 9 12 15 14 17 17 16 14 14 13 13 13 12 12 14 15 15 16 16 15 16 17 18 17 17 15 12 11 11 10 10 10 11 12 12 9 10 11 10 10 9 8 8 8 9
0 1 2 2 2 3 4 6 8 9 13 15 16 17 15 15 15 13 13 13 12 13 14 15 18 17 17 16 17 17 18 19 16 15 13 11 11 10 9 10 10 9 9 9 8 8 8 9 9 8 8 8 9 9
1 3 1 2 3 4 5 8 9 13 13 16 17 15 16 16 15 15 12 12 11 12 16 17 19 18 17 19 18 16 18 15 14 13 12 11 9 9 9 9 10 10 8 7 7 7 7 7 8 9 9 6 6 6
3 1 1 2 3 4 6 9 12 12 15 15 16 15 13 14 16 16 13 12 11 14 14 16 15 19 19 19 18 16 15 14 13 12 10 9 8 8 8 8 8 7 7 7 8 8 8 9 7 6 6 6 6 6
2 2 1 2 4 7 9 9 10 14 15 14 14 14 14 15 14 13 12 12 10 11 14 16 19 17 16 15 15 15 15 13 11 10 9 8 8 8 8 7 7 7 7 7 6 6 6 6 6 5 5 6 6 6
1 2 3 3 5 10 12 11 10 12 14 13 13 14 14 13 12 12 12 12 9 12 12 13 14 13 13 12 12 11 11 11 11 11 10 9 8 8 7 7 7 6 6 7 7 10 7 6 5 5 5 6 6 6
4 4 4 5 8 10 12 13 14 13 12 13 12 12 14 12 12 12 13 11 10 11 12 11 12 10 10 10 9 9 9 8 9 9 9 9 7 7 7 6 6 7 7 8 8 7 9 7 5 5 5 5 5 4
5 4 7 8 11 12 13 12 12 12 14 14 15 15 18 18 14 12 10 10 10 11 10 11 9 9 8 8 8 7 7 7 7 7 9 9 9 8 8 7 8 8 8 8 7 7 6 6 6 5 5 5 4 5
5 7 11 13 14 16 15 12 15 13 16 17 17 17 18 19 16 11 12 10 11 9 8 8 8 7 7 7 7 7 7 7 8 8 8 8 7 7 7 7 7 8 8 7 7 7 6 7 7 6 5 5 6 6
7 12 16 18 18 17 18 18 14 16 18 18 19 19 17 17 13 13 14 14 11 10 9 8 8 8 8 8 8 7 7 7 7 8 8 8 8 7 7 7 7 7 7 6 6 7 7 6 6 6 7 7 7 6
12 15 16 15 13 17 21 14 13 13 19 19 17 19 19 16 19 16 15 13 13 12 10 10 9 8 9 9 9 8 8 7 8 8 7 8 8 8 7 7 7 6 5 6 7 6 6 6 6 6 6 7 7 7
19 14 18 21 15 19 18 18 17 16 18 20 17 20 22 21 20 17 14 12 13 11 12 12 10 11 10 8 8 8 7 7 8 9 7 7 7 7 8 8 7 7 6 6 7 7 7 7 7 7 7 7 8 8
16 14 12 12 13 16 21 21 19 21 18 19 20 22 21 20 19 14 11 10 10 9 9 9 8 8 7 7 8 8 8 9 8 7 7 6 6 5 5 6 7 7 7 7 7 7 8 7 8 8 8 8 8 8
18 14 16 12 14 16 21 23 21 17 18 16 18 19 18 17 15 11 10 9 10 9 8 8 8 8 8 8 9 10 9 10 8 7 7 7 9 9 9 8 8 8 7 7 7 8 9 11 10 9 9 9 9 9
11 15 14 13 14 14 18 16 16 14 12 14 15 17 15 12 13 14 13 13 11 10 10 10 9 9 9 9 10 8 8 8 7 8 9 9 10 10 11 11 10 8 7 8 8 9 10 10 11 11 12 12 12 12
12 11 15 15 17 17 14 13 15 16 14 13 13 12 12 15 15 15 15 16 16 16 15 14 13 13 12 12 12 11 12 13 13 11 11 11 12 13 13 12 12 12 11 11 10 11 12 13 13 13 14 15 15 15
14 14 15 17 18 17 18 22 23 22 22 18 20 15 14 18 17 16 16 16 16 16 17 17 15 14 13 13 13 13 12 12 12 13 13 13 14 14 14 15 15 15 14 12 12 14 15 16 17 16 17 17 18 18
13 13 17 15 18 20 23 23 24 21 23 23 21 24 21 19 21 19 17 17 18 19 18 17 17 15 13 11 12 12 13 13 14 14 14 15 15 16 16 17 18 18 17 18 18 18 19 19 19 19 19 19 19 20
26 21 21 24 21 20 22 21 22 21 23 24 25 20 25 23 24 20 19 17 17 18 18 18 16 13 14 14 15 15 15 15 15 16 16 16 18 19 19 20 21 20 19 19 20 20 20 20 21 21 21 21 22 22

GFSWCAN_con_lsi_024.txt.gz
Lid_Strength_Index
4 4 4 3 3 3 3 3 3 3 3 2 2 3 3 3 3 -0 1 -0 2 5 4 4 4 5 5 5 8 6 7 7 8 13 14 12 14 11 11 9 11 12 14 15 14 16 17 8 8 11 8 6 6 5
4 4 4 4 3 3 3 3 3 3 3 3 2 2 3 3 3 1 2 -0 0 3 4 2 2 1 2 3 4 5 6 7 6 10 10 10 13 12 12 14 8 12 9 10 10 11 6 6 7 5 4 5 7 9
5 5 4 4 4 3 3 3 3 3 3 3 3 2 3 3 3 1 1 -0 1 4 4 4 4 2 0 1 0 6 4 4 5 4 7 9 13 9 14 12 9 7 7 9 9 8 7 5 4 6 6 8 8 9
5 5 5 4 5 4 4 3 3 3 3 3 3 3 3 3 3 1 0 0 1 5 11 6 3 3 2 0 1 1 3 3 3 3 10 10 13 6 10 9 10 7 7 8 9 7 6 6 6 8 9 9 9 9
5 5 5 5 5 5 4 4 4 4 3 3 3 3 3 3 3 -0 -1 -1 -1 3 9 6 3 3 3 2 2 2 2 4 5 9 10 11 6 8 7 9 11 6 8 10 11 7 7 8 9 9 11 11 10 10
5 5 5 5 5 5 5 4 4 4 3 3 3 3 3 3 3 -0 3 -1 -1 -0 6 10 4 5 4 3 3 3 3 4 5 7 8 6 5 7 12 12 7 6 5 5 8 6 8 10 10 10 10 10 9 8
5 5 5 5 5 5 5 5 5 4 3 3 3 3 3 3 -0 2 4 2 2 -1 7 10 9 6 6 5 4 3 3 4 4 7 9 7 7 7 13 13 9 9 9 8 6 8 10 10 11 9 9 8 8 8
5 5 5 5 5 5 5 5 5 4 4 4 3 3 4 4 4 1 1 3 1 3 5 11 10 8 6 7 8 6 7 7 8 8 11 10 10 10 12 9 10 10 10 11 10 8 8 9 9 8 8 8 9 9
5 5 5 5 6 6 5 5 5 5 4 4 4 4 3 4 6 5 4 3 3 3 10 11 12 12 6 8 8 8 8 12 9 12 12 10 12 12 11 11 11 11 10 10 10 9 10 10 10 9 9 9 9 9
4 4 5 5 5 5 5 5 5 5 5 4 4 7 11 9 4 4 5 8 10 12 12 12 9 10 6 9 10 10 10 12 13 12 10 13 12 12 10 10 9 10 10 9 10 12 11 10 10 9 9 8 8 8
2 4 5 5 5 5 5 5 5 5 5 7 10 12 8 6 7 10 12 12 13 13 13 12 12 12 8 11 12 12 13 13 14 12 11 12 13 11 10 10 10 10 10 10 9 9 9 9 9 9 8 7 7 7
2 2 3 4 5 5 5 5 5 6 7 7 8 7 8 10 12 13 13 13 13 13 13 13 12 11 12 10 12 13 13 13 15 11 13 14 11 10 10 11 10 9 10 10 9 9 8 8 7 7 7 7 7 7
1 2 3 3 4 5 5 5 6 6 6 7 12 13 13 14 14 14 15 14 14 12 11 12 13 12 12 11 13 12 13 14 12 15 14 11 11 10 10 10 10 9 9 10 9 8 7 7 7 7 8 7 7 7
1 2 2 2 3 3 5 5 7 7 8 12 13 14 13 14 13 13 12 12 12 11 11 11 12 11 12 13 12 14 14 13 15 16 14 12 10 9 9 9 9 9 9 10 9 8 8 8 8 7 7 7 7 7
1 1 1 2 2 3 4 5 7 7 10 12 12 15 14 14 12 12 12 11 11 10 10 11 12 11 13 14 13 14 16 16 15 14 12 10 9 9 9 9 8 8 9 9 8 8 8 8 8 7 6 5 5 6
1 1 2 2 2 3 4 5 7 8 11 12 13 14 14 13 13 13 12 13 11 12 12 11 13 14 15 14 15 15 16 16 13 11 9 8 9 9 9 8 9 8 8 8 7 7 7 7 7 6 5 5 6 6
1 3 1 2 3 4 4 5 6 11 12 12 13 12 12 12 12 12 11 11 11 11 13 13 15 15 15 15 15 13 14 12 10 9 9 9 8 8 8 8 8 8 8 7 6 6 5 5 5 6 6 4 4 4
2 1 1 2 1 2 4 6 8 9 12 12 12 12 12 11 11 12 11 10 10 11 12 13 14 15 15 15 14 12 11 9 9 9 8 8 7 7 7 7 7 6 6 6 5 5 5 6 5 4 4 3 4 4
1 1 1 1 2 4 6 7 7 11 11 11 12 11 11 11 12 11 10 10 9 9 11 12 13 13 13 12 11 10 9 9 8 8 7 7 7 7 7 6 6 6 5 5 5 4 4 4 4 3 3 3 4 5
1 2 2 3 3 6 8 8 7 9 10 10 9 10 10 10 11 10 10 9 8 9 10 11 11 10 10 9 8 7 7 7 8 8 8 6 6 6 6 5 5 4 4 4 4 5 4 4 3 3 3 4 5 5
3 3 3 3 6 6 8 9 9 9 9 10 10 9 11 10 10 10 10 9 9 9 10 8 7 6 6 6 6 6 6 6 7 6 6 6 4 5 5 4 4 4 4 4 4 4 4 4 3 4 4 4 4 4
4 4 6 5 7 8 8 9 8 9 9 10 9 9 9 10 10 10 9 9 9 7 7 6 6 6 6 6 5 5 5 5 5 5 6 5 6 5 4 3 3 4 3 3 3 4 3 3 4 4 5 5 5 4
4 6 8 7 9 9 11 8 10 10 11 11 10 10 10 9 10 9 11 9 7 6 6 5 5 5 5 4 5 5 4 5 5 4 4 4 4 3 4 3 3 4 4 3 3 3 3 4 4 5 5 5 5 5
6 9 10 11 10 12 10 11 10 10 10 10 11 12 12 10 11 11 12 9 7 6 6 6 5 5 5 5 5 4 4 4 4 4 3 4 4 3 3 3 3 3 3 3 4 4 4 4 5 5 5 5 5 5
9 12 11 13 11 13 13 12 13 12 13 13 13 12 11 11 11 12 12 8 6 6 5 5 5 5 5 4 4 4 4 4 4 4 3 3 3 3 3 2 3 3 2 4 4 5 5 5 5 5 5 5 6 7
13 13 12 13 13 13 13 14 13 14 13 14 13 12 12 11 12 12 9 7 5 5 5 4 4 4 5 4 5 4 3 3 3 4 3 3 4 4 4 5 5 4 3 4 5 6 6 6 6 6 7 7 8 8
14 13 11 10 10 12 13 13 12 12 14 14 11 13 12 13 12 9 7 8 7 7 6 5 6 6 6 6 5 5 4 4 5 4 3 4 4 4 5 5 6 5 4 5 5 6 6 7 7 7 7 7 7 8
11 11 13 12 12 11 13 13 13 13 11 10 11 13 12 11 10 9 10 10 9 8 7 7 7 9 8 7 7 6 6 5 5 4 5 5 5 6 7 6 6 7 5 5 5 6 6 7 7 7 8 8 8 8
10 10 10 13 13 12 11 10 10 9 8 9 9 9 9 10 13 13 12 11 10 11 12 12 11 10 9 9 9 9 10 10 9 7 7 6 5 8 9 8 7 7 7 6 7 7 8 8 8 8 9 9 9 9
11 9 11 12 13 12 8 8 7 7 7 6 6 7 9 13 14 12 13 13 14 14 14 14 13 13 14 13 13 11 11 11 10 10 11 11 11 10 10 10 10 9 9 8 8 8 9 9 10 9 11 12 12 12
10 9 10 10 10 8 9 11 10 10 9 7 9 8 9 14 14 14 15 14 14 15 15 16 15 14 14 14 14 14 14 12 13 12 12 11 11 12 12 12 12 11 10 10 10 10 11 11 11 12 13 14 15 15
10 11 11 12 10 10 11 10 10 10 10 10 10 11 13 14 17 16 16 15 16 17 18 17 17 16 14 14 14 14 14 14 14 14 15 14 14 14 14 14 14 12 12 12 12 12 13 13 13 14 14 16 17 17
14 13 14 13 11 11 11 13 12 12 11 12 13 14 16 16 19 17 14 15 16 17 17 17 16 15 14 14 15 14 15 14 15 15 15 16 16 17 16 15 14 13 13 12 13 13 14 15 16 16 17 18 18 19

GFSWCAN_con_lsi_027.txt.gz
Lid_Strength_Index
4 4 3 3 3 3 3 3 3 3 3 2 2 2 3 3 3 0 1 -1 2 5 4 3 3 5 5 5 8 6 7 7 8 12 14 13 14 10 10 9 11 13 14 15 13 16 17 6 7 11 8 5 6 6
4 4 4 3 3 3 3 3 3 3 2 2 2 2 2 3 3 3 1 -1 -1 2 4 1 1 1 2 2 4 5 6 6 6 9 11 10 14 13 12 13 7 11 9 11 11 11 6 5 6 5 4 6 7 9
5 5 4 3 3 3 3 3 3 3 3 2 2 2 2 3 2 2 0 -0 -0 4 3 3 4 1 0 1 0 5 4 4 5 3 7 9 13 9 14 12 9 7 5 10 9 7 7 6 5 5 6 7 8 8
5 5 5 4 4 3 3 3 3 3 3 3 3 2 2 3 2 2 0 -1 1 3 11 5 1 2 0 0 1 1 2 2 3 3 9 10 12 6 10 8 9 7 6 8 9 7 6 6 7 8 8 9 9 9
5 5 5 5 5 4 4 4 3 3 3 3 3 3 2 2 2 -0 -1 -1 -1 3 9 6 2 2 1 1 2 2 2 3 4 8 10 10 6 7 7 8 9 6 7 10 11 7 8 8 8 9 10 9 9 9
6 5 5 5 5 5 4 4 4 3 3 3 3 3 3 3 2 -0 3 -1 -1 -0 5 10 3 3 2 2 2 3 3 4 4 6 8 6 4 6 12 12 6 5 5 5 7 7 8 9 9 9 9 9 8 8
6 5 5 5 6 5 5 5 5 4 4 3 3 3 3 3 -1 2 3 1 2 -1 6 10 7 4 4 2 2 3 3 4 4 5 8 6 6 6 11 12 7 6 7 7 7 7 10 10 9 8 8 8 8 8
5 6 6 5 5 5 5 5 5 5 4 3 3 4 4 4 3 1 -0 2 0 2 3 12 9 7 4 6 7 4 6 5 5 6 7 8 6 8 12 7 6 7 8 8 8 6 6 6 7 8 8 8 9 9
5 5 6 6 6 5 5 5 5 5 4 4 4 4 2 3 4 2 4 2 -1 2 9 11 11 12 4 7 7 7 5 11 7 10 9 8 10 12 8 7 9 9 9 9 8 8 8 9 10 9 9 9 9 9
4 5 5 5 5 5 5 5 5 5 4 4 3 5 10 7 4 3 2 6 7 6 8 10 5 10 5 8 10 9 8 11 12 10 9 13 12 11 8 8 8 8 8 7 9 10 10 11 10 10 9 8 8 8
3 3 4 5 5 5 5 5 5 5 4 7 10 12 7 5 6 9 12 11 11 12 11 9 7 8 6 9 11 9 12 12 13 10 11 11 11 9 8 9 8 8 8 9 9 9 9 9 9 9 8 8 7 7
2 2 3 4 4 4 5 5 5 6 7 7 8 7 8 10 12 12 13 13 13 12 12 13 12 9 11 8 12 13 12 12 13 9 13 14 10 9 8 9 9 8 9 9 9 10 9 9 8 8 7 7 7 7
2 2 2 3 4 4 5 5 6 6 6 8 11 13 13 14 14 13 14 13 13 12 12 12 13 12 12 11 13 13 13 13 10 14 14 10 9 9 8 8 9 8 9 10 10 9 9 8 7 7 7 7 7 7
1 2 2 2 3 3 5 6 6 6 8 13 13 14 13 14 13 12 11 11 11 11 11 12 13 13 12 13 12 13 12 11 14 16 14 10 9 9 8 8 9 9 10 10 9 9 8 7 7 7 7 7 7 7
1 1 1 2 3 3 4 6 6 6 9 13 12 14 13 13 12 12 12 11 11 10 10 11 11 10 12 13 12 13 15 15 14 13 10 8 8 8 8 9 9 9 9 9 8 8 8 7 7 7 6 5 5 6
1 1 1 2 2 3 4 4 5 6 10 11 12 13 12 12 13 12 12 12 10 10 10 10 12 13 13 12 14 14 14 15 12 9 8 8 8 8 8 9 9 8 8 8 7 7 7 7 7 6 5 5 6 6
1 2 2 2 3 3 3 4 5 9 10 10 12 10 11 11 12 12 10 11 10 11 12 12 14 14 13 14 15 12 13 11 9 8 8 8 8 9 8 8 8 8 7 7 6 6 6 5 5 5 6 4 3 3
2 1 2 2 2 3 4 4 6 7 11 10 10 11 10 10 10 10 9 9 10 11 11 13 12 14 14 14 12 10 9 8 7 8 8 8 8 7 7 7 7 6 6 6 5 5 5 5 5 4 4 3 3 3
1 1 1 1 2 2 4 5 5 9 9 8 10 10 10 10 10 9 9 8 8 8 9 11 12 13 12 11 10 8 7 8 8 8 7 6 6 6 6 6 6 6 6 5 5 4 3 3 3 3 3 3 4 4
2 2 3 2 2 4 6 6 4 7 8 8 7 8 9 10 10 10 9 8 8 8 10 11 11 9 8 8 7 7 6 6 7 7 7 6 5 5 5 5 5 4 4 4 3 4 3 3 2 2 3 3 4 4
3 3 3 2 4 4 5 6 7 7 7 8 8 7 9 8 9 9 9 7 8 8 9 8 6 5 5 5 5 5 5 5 6 6 6 6 5 4 4 4 3 3 3 3 3 3 3 2 2 2 3 4 4 5
4 3 5 3 7 6 7 7 6 6 7 8 8 7 9 10 10 9 8 9 8 7 6 5 5 5 5 5 5 4 4 4 4 4 6 5 5 4 4 3 3 3 3 3 2 3 3 2 3 3 3 4 4 4
4 5 5 5 7 7 10 6 8 8 9 9 8 9 9 9 9 8 9 7 6 5 4 4 4 4 4 4 4 4 4 4 4 4 3 3 3 2 2 2 2 3 3 2 2 2 3 3 3 4 4 4 4 4
5 7 8 8 7 10 8 9 8 8 8 9 9 11 10 8 9 9 10 7 5 4 5 5 4 5 4 5 5 4 4 3 3 3 2 3 3 3 2 3 2 2 2 3 3 4 3 4 4 4 4 5 5 5
8 10 9 12 9 10 10 10 11 9 11 11 11 10 10 9 10 10 10 7 5 5 5 4 4 4 5 4 4 3 2 3 3 4 2 2 2 2 3 2 2 1 2 4 4 4 4 4 4 4 5 5 6 7
12 11 11 10 11 11 10 12 11 11 11 11 11 9 9 9 11 11 8 7 6 7 7 6 6 5 5 4 4 4 4 3 4 5 4 3 4 4 4 4 3 3 1 3 4 5 6 5 6 6 6 6 6 7
12 12 10 9 9 10 10 10 9 10 11 11 10 10 10 12 11 8 7 10 8 8 8 7 7 7 7 7 6 7 6 7 7 7 6 5 5 5 6 6 4 3 3 3 4 5 6 6 6 6 6 6 6 7
10 10 12 11 10 9 11 10 10 10 9 8 8 11 11 11 10 10 11 10 9 8 7 7 7 8 8 9 9 9 9 8 7 7 6 5 5 8 8 6 4 5 4 4 5 5 5 6 6 6 7 7 7 7
10 9 9 12 11 9 9 9 9 7 6 7 8 9 8 11 12 11 11 10 9 9 10 10 10 9 9 9 9 9 10 11 12 13 13 12 11 11 9 9 7 7 6 6 6 6 7 7 7 7 8 8 8 8
10 8 9 11 11 10 7 6 7 6 6 5 5 7 10 12 12 11 11 11 11 12 12 11 11 11 12 12 12 12 10 12 13 14 15 15 13 11 11 11 10 10 9 8 8 7 6 7 7 7 8 9 10 10
8 8 9 9 9 8 8 8 7 7 7 6 7 7 10 12 13 12 12 12 12 12 13 13 13 12 13 14 14 15 15 12 13 14 14 14 13 12 12 12 11 11 10 10 9 9 9 8 8 9 10 11 12 12
9 10 9 11 9 8 7 8 7 7 7 7 8 9 11 11 13 13 13 13 13 14 15 15 15 15 14 13 13 13 14 14 13 14 14 15 15 14 14 13 12 12 12 11 10 10 10 10 10 11 11 13 14 14
10 10 10 10 9 10 8 9 9 10 9 9 10 11 12 12 15 14 13 13 14 15 15 15 14 14 14 14 14 13 14 13 14 14 14 15 16 16 16 15 15 15 13 11 10 11 11 12 12 13 14 15 16 17